Погода в Песчанотаволжанском

Россия / Курганская область     55°43′56″N   63°18′56″E
темп.,
°C
ветер,
м/с
пор.,
м/с
влажн.,
%
обл.,
%
осадки,
мм/ч
давл.,
гПа
погр.,
м
14 апреля, ср
ср1423:00+8ююз49875 0.0 1036162
02:00+7юз5128715 0.0 1035247
05:00+6юз51289100 0.0 1034228
08:00+7зюз4987100 0.0 1034250
11:00+13зюз567447 0.0 1032487
14:00+17зюз566145 0.0 1031778
17:00+17з56605 0.0 1029832
20:00+14зюз33785 0.0 102939
15 апреля, чт
чт1523:00+12зюз34835 0.0 102856
02:00+10зюз348425 0.0 102749
05:00+8юз33775 0.0 102736
08:00+10юз36685 0.0 1026152
11:00+14юз45505 0.0 1025388
14:00+18юз45545 0.0 1023843
17:00+19зюз57492 0.0 10211226
20:00+14юз466343 0.0 101982
16 апреля, пт
пт1623:00+11з3570100 0.0 101966
02:00+10з3676100 0.0 101881
05:00+9з3682100 0.0 101786
08:00+10с58822 0.0 1018354
11:00+7ссв7985100 0.0 1020754
14:00+5св6989100 0.1 1022599
17:00+9св565094 0.1 10221274
20:00+6св375996 0.0 1022198
17 апреля, сб
сб1723:00+3св35662 0.0 102395
02:00+2ссв33700 0.0 102341
05:00+1св00710 0.0 102210
08:00+3сз23610 0.0 1022215
11:00+4ссз34441 0.0 10231243
14:00+9зсз6938100 0.0 10192436
17:00+8ссз9105579 0.1 10191474
20:00+5ссв4947100 0.1 1020305
18 апреля, вс
вс1823:00+2ссв2453100 0.1 1021114
02:000юв3462100 0.0 1020101
05:000ю2565100 0.0 1020120
08:00+2ююз345699 0.4 1019473
11:00+3св775415 0.5 10191442
14:00+3св6745100 0.1 10211957
17:00−5св101688100 12.1 10241260
20:00−1ссв611364 0.0 1027659